LIMFLIMJ

Guest
Details From LIMF - Torino Caselle
To LIMJ - Genova Sestri
Flight Number -
Tags generated
Created
Modified
Stats Distance 70 nm / 129 km
Max Altitude 2,800 ft / 853 m
Waypoints 3
Social Downloads 6
Likes 0
Share VATSIM

Download

Looking for another format? Having issues loading an existing format? Contact us
Advertisement - Login to hide

Notes

Basic altitude profile: - Ascent Rate: 2500ft/min - Ascent Speed: 250kts - Cruise Altitude: 35000ft - Cruise Speed: 420kts - Descent Rate: 1500ft/min - Descent Speed: 250kts Options: - Use NATs: no - Use PACOTS: no - Use low airways: yes - Use high airways: no

Route

LIMF TESTO LIMJ

ID Type Via Altitude Latitude Longitude Leg Dist Tot Dist Heading (true) Name
O LIMF APT - 0 ft / 0 m 45.20076˚ 7.64963˚ - 0 nm - Torino Caselle
TESTO FIX - 2,800 ft / 853 m 44.59722˚ 8.66556˚ 56 nm 56 nm 130° / 130° -
O LIMJ APT - 0 ft / 0 m 44.41196˚ 8.84187˚ 13 nm 69 nm 146° / 146° Genova Sestri

Altitude Profile

Advertisement - Login to hide

LIMF

Details ICAO LIMF (TRN)
Name Torino Caselle
Region Italy
Timezone Europe/Rome (UTC+1.0)
Stats Elevation 989 ft / 301 m (AMSL)
Location 45.200763° 7.649630°
Runways 1
Magnetic Variation 2.113° E

METAR

LIMF 180920Z VRB02KT 8000 NSC 08/M00 Q1019

Decode

TAF

TAF LIMF 180500Z 1806/1906 VRB05KT CAVOK TEMPO 1902/1906 2000 BCFG

Decode

Departure Runways

ID Width Length Bearing (true) Bearing (mag) Surface Threshold Offset Overrun Length
18 197 ft / 60 m 10,835 ft / 3,303 m 182.56° 180.45° Asphalt 2,378 ft / 725 m 970 ft / 296 m
36 197 ft / 60 m 10,835 ft / 3,303 m 2.56° 0.45° Asphalt 1,148 ft / 350 m 0 ft / 0 m

LIMJ

Details ICAO LIMJ (GOA)
Name Genova Sestri
Region Italy
Timezone Unknown (UTC+0.0)
Stats Elevation 13 ft / 4 m (AMSL)
Location 44.411957° 8.841866°
Runways 1
Magnetic Variation 2.379° E

METAR

LIMJ 180920Z 05011KT 030V090 CAVOK 13/04 Q1017

Decode

TAF

TAF LIMJ 180500Z 1806/1906 03007KT CAVOK

Decode

Destination Runways

ID Width Length Bearing (true) Bearing (mag) Surface Threshold Offset Overrun Length
10 148 ft / 45 m 9,574 ft / 2,918 m 105.39° 103.01° Asphalt 0 ft / 0 m 0 ft / 0 m
28 148 ft / 45 m 9,574 ft / 2,918 m 285.41° 283.03° Asphalt 538 ft / 164 m 0 ft / 0 m

Approach Navaids

Runway Type Ident Frequency Range Bearing (true) Bearing (mag) Slope Elevation
28 Localiser GSE 109.30 MHz 18 nm / 33 km 287.30° 284.92° - 9 ft / 3 m (AMSL)
28 Glidescope GSE 109.30 MHz 10 nm / 19 km 287.30° 284.92° 3.17° 26 ft / 8 m (AMSL)
28 DME GSE 109.30 MHz 18 nm / 33 km - - - 26 ft / 8 m (AMSL)

Popular Alternatives